Regional Weather Roundup
Issued by NWS Charleston, SC

Current Version | Previous Version | Graphics & Text | Print | Product List | Glossary On
Versions: 1 2 3 4 5 6 7 8 9 10 11 12 13 14 15 16 17 18 19 20 21 22 23 24 25 26 27 28 29 30 31 32 33 34 35 36 37 38 39 40 41 42 43 44 45 46 47 48 49 50
000 ASUS42 KCHS 260927 RWRCHS REGIONAL WEATHER ROUNDUP NATIONAL WEATHER SERVICE CHARLESTON SC 500 AM EDT MON JUN 26 2017 NOTE: "FAIR" INDICATES FEW OR NO CLOUDS BELOW 12,000 FEET WITH NO SIGNIFICANT WEATHER AND/OR OBSTRUCTIONS TO VISIBILITY. NOT ALL STATIONS ARE QUALITY CONTROLLED. USE DATA WITH CAUTION... ESPECIALLY DEWPOINT OBSERVATIONS. SCZ027-030-031-034>040-042>050-261000- ...SOUTHEAST SOUTH CAROLINA... CITY SKY/WX TMP DP RH WIND PRES REMARKS N CHARLESTON CLOUDY 73 72 96 N5 30.04F WATERFRONT PRK N/A 76 74 93 VRB2 30.02F JOHNS ISLAND FAIR 75 73 94 CALM 30.04S PINOPOLIS N/A 75 75 100 N5 29.98F MONCKS CORNER FAIR 72 72 100 CALM 30.05S FOG SUMMERVILLE FAIR 72 72 100 CALM 30.05F BEAUFORT MCAS CLOUDY 75 75 100 CALM 30.04F BEAUFORT ARPT FAIR 73 72 94 CALM 30.04S HILTON HEAD IS CLOUDY 75 75 100 CALM 30.05S WALTERBORO PTSUNNY 72 72 100 CALM 30.06S FOG ALLENDALE FAIR 72 72 100 N5 30.06R ...SOUTHERN MIDLANDS AND PEE DEE... CITY SKY/WX TMP DP RH WIND PRES REMARKS GEORGETOWN CLOUDY 73 72 94 CALM 30.05S KINGSTREE FAIR 70 66 88 CALM 30.06S ORANGEBURG MOCLDY 73 69 87 N3 30.07F BARNWELL FAIR 73 70 88 NE5 30.07F AIKEN PTSUNNY 70 63 78 N6 30.13S MANNING FAIR 72 70 94 N9 30.06S COLUMBIA MOCLDY 75 63 66 N3 30.08S SUMTER CLOUDY 72 65 76 N3 30.05F FLORENCE CLOUDY 74 67 78 N6 30.07F MYRTLE BEACH CLOUDY 74 73 97 N6 30.06S N MYRTLE BEACH PTCLDY 74 73 97 N6 30.04S $$ GAZ063-065-086>088-099>101-113>116-118-119-134>141-150-261000- ...SOUTHEAST GEORGIA... CITY SKY/WX TMP DP RH WIND PRES REMARKS SAVANNAH ARPT CLOUDY 76 73 91 N3 30.06F HUNTER AAF MOCLDY 75 73 94 CALM 30.03S FORT STEWART DRIZZLE 73 72 94 CALM 30.04S STATESBORO CLOUDY 76 32 20 CALM 30.06S SYLVANIA CLOUDY 75 75 100 CALM 30.07S FOG CLAXTON CLOUDY 73 72 99 CALM 30.06S ...CSRA...CENTRAL AND FAR SOUTHEAST GEORGIA... CITY SKY/WX TMP DP RH WIND PRES REMARKS THOMSON MOCLDY 69 63 81 E5 30.16R AUGUSTA-BUSH CLOUDY 76 69 79 N3 30.07S AUGUSTA-DANIEL CLOUDY 74 62 66 N7 30.09S SWAINSBORO FAIR 73 73 100 NE7 30.07F VIDALIA CLOUDY 73 72 94 N3 30.07R EASTMAN FAIR 68 67 96 CALM 30.10S HAZLEHURST N/A 73 73 100 CALM 30.06S ALMA CLOUDY 75 72 90 CALM 30.06S WAYCROSS CLOUDY 77 77 100 CALM 30.07S JESUP PTSUNNY 73 72 94 CALM 30.06S BAXLEY FAIR 73 73 100 CALM 30.06S BRUNSWICK CLOUDY 73 73 100 CALM 30.06F SAINT SIMONS CLOUDY 77 74 90 NW3 30.05S $$ SCZ027-028-034-036>038-045-046-048>050-GAZ119-141-261000- ...LAKE AND SUPPLEMENTAL COASTAL OBSERVATIONS... STATION/POSITION TIME TEMP WIND PRES WAVE SWELL AIR SEA DIR/SP/G HT/PER HT/PER/DIR (UTC) (F) (DEG/KT/KT) (MB) (FT/S) (FT/S/D) WINYAH BAY 0830 75 310/ 3 1017.0S LAKE MURRAY 0850 71 CALM / 3 1018.3R ACE BASIN NERRS 0830 74 CALM 1018.0S FORT PULASKI 0900 76 84 320/ 6/ 8 1017.8 SAPELO ISLAND 0900 75 CALM 1018.0 $$ ANZ835-935-AMZ111-154-330-350-352-354-370-450-454-472-261000- ...C-MAN AND BUOY OBSERVATIONS... STATION/POSITION TIME TEMP WIND PRES WAVE SWELL AIR SEA DIR/SP/G HT/PER HT/PER/DIR (UTC) (F) (DEG/KT/KT) (MB) (FT/S) (FT/S/D) BUOY 41004 0910 79 81 270/ 8/ 10 1016.5 BUOY 41008 0850 79 82 280/ 10/ 12 1017.2F 2/ 8 2/ 90/ 8 FOLLY BEACH CMAN 0900 75 340/ 4/ 6 1017.7F CAPERS NEARSHORE 0908 80 83 350/ 8/ 12 1017.0F FRIPP NEARSHORE 0908 78 83 360/ 8/ 10 1017.0F STATION/POSITION TIME TEMP WIND PRES WAVE SWELL AIR SEA DIR/SP/G HT/PER HT/PER/DIR (UTC) (F) (DEG/KT/KT) (MB) (FT/S) (FT/S/D) 5E ST. MARYS GA 0900 80 N/A 2/ 8 FRYING PAN BUOY 0910 74 80 280/ 10/ 14 1017.5 BUOY 41025 0850 79 79 340/ 10/ 12 1017.0S 2/ 8 2/140/ 8 CAPE LOOKOUT NC 0900 76 360/ 7/ 8 1016.8F BUOY 41002 0850 80 80 200/ 10/ 12 1018.5F 3/ 6 3/220/ 6 BUOY 41010 0910 82 83 170/ 14/ 17 1017.5 ST AUGUSTINE FL 0900 74 77 270/ 3/ 4 1017.8R $$

USA.gov is the U.S. government's official web portal to all federal, state and local government web resources and services.